sat.trackr.live / text

‹ back to catalog

FLOCK 4H-31

NORAD 66734 · 2025-276BW

PAYLOAD ACTIVE UNKNOWN

§ Identity

Operator
Country
US
Launch date
2025-11-28
Launch site
AFWTR
Launch vehicle
Mass (kg)
RCS (m²)

Purposes: earth_obs

External: N2YO · Heavens-Above · Gunter

§ Orbital elements

Epoch: 2026-05-25T04:29:58.466400Z

Period
94.78 min
Inclination
97.4172°
Eccentricity
0.0005472
Mean motion
15.19328994 rev/d
Perigee alt
504.1 km
Apogee alt
511.6 km
Semi-major
6,886.0 km
B*
2.6137e-4
RAAN
218.9709°
Arg perigee
99.8727°
Mean anomaly
260.3125°
Rev number
2,692

§ Raw data

FLOCK 4H-311 66734U 25276BW  26145.18748225  .00005456  00000+0  26137-3 0  99942 66734  97.4172 218.9709 0005472  99.8727 260.3125 15.19328994 26923

JSON: /api/v1/satellites/66734 · /tle

For live sub-satellite position, see the globe view (requires WebGL).

§ Visibility from observer

Set your observer location to see the next 7 days of passes ≥ 10°. The values pass through the URL so the page stays shareable.

No JS? Fill the form by hand. The geolocation button needs JavaScript.